User: anonymous   Login
Location: 476 Grange Obs.
(45.1420°N, 7.1420°E)
Time: 09:47:25
(UTC+02:00)
Language:

ISS - Orbit

View from above orbital plane
View from above orbital plane
View from above satellite
View from above satellite

Ground track
Ground track

The orbit data is extracted from the following two-line orbital elements,

1 25544U 98067A   21269.21339421 -.00000450  00000-0  00000+0 0  9994
2 25544  51.6419 203.2055 0003860  27.6676  56.1483 15.48861169304256
Epoch (UTC): 26 September 2021 05:07:17
Eccentricity: 0.0003860
inclination: 51.6419°
perigee height: 417 km
apogee height: 422 km
right ascension of ascending node: 203.2055°
argument of perigee: 27.6676°
revolutions per day: 15.48861169
mean anomaly at epoch: 56.1483°
orbit number at epoch: 30425

The dashed part of the orbit path shows where the satellite is in the earth's shadow,  

DLR